Wind_Speed
35 34 33 33 33 33 31 27 25 25 25 24 23 22 20 19 18 18 17 16 15 15 14 14 13 13 13 12 12 11 11 10 10 9 9 9 9 9 9 9 9 9 8 9 9 9 9 9 10
36 36 36 35 35 33 31 28 27 26 26 26 25 24 23 21 20 19 18 18 17 17 16 15 15 14 14 14 13 13 12 12 12 11 11 11 11 11 11 11 11 11 11 11 11 11 11 11 12
38 38 38 37 36 33 30 29 28 27 27 27 26 26 25 23 21 21 20 19 19 18 17 17 16 16 15 15 15 14 14 14 14 13 13 13 13 13 13 12 12 12 13 13 13 13 13 13 13
39 40 40 39 37 34 32 30 29 29 28 28 27 27 26 24 23 22 22 21 20 19 19 18 18 17 17 16 16 15 15 15 15 15 15 15 15 15 15 14 14 14 14 15 15 15 15 15 15
41 41 42 40 38 35 33 32 31 30 30 29 29 28 27 26 25 24 23 22 22 21 20 20 19 19 18 18 17 17 17 17 17 17 17 17 17 17 17 17 17 17 17 17 17 17 17 17 17
42 43 42 40 38 36 35 34 33 32 31 31 30 29 28 27 27 26 25 24 23 22 22 22 21 20 19 18 18 18 18 18 18 18 18 18 18 18 18 19 19 18 18 18 18 18 18 18 18
44 43 42 40 39 37 36 36 35 33 32 32 31 31 29 28 28 27 26 26 24 24 23 23 23 22 21 20 20 19 19 19 19 19 19 19 19 20 20 20 20 20 20 20 20 20 20 20 20
44 44 43 42 40 38 38 38 37 35 34 34 33 32 31 30 29 29 28 27 26 25 25 24 24 23 23 22 22 21 21 20 20 20 20 20 21 21 21 21 20 20 20 20 20 21 21 21 22
46 46 44 42 40 39 39 39 39 37 36 35 34 33 32 32 31 30 30 29 28 27 26 26 26 25 24 24 24 23 22 22 22 22 22 21 21 22 22 22 22 21 21 21 21 22 22 22 23
47 47 44 42 41 40 40 40 40 39 38 37 36 35 34 33 33 32 31 30 30 29 28 28 28 27 26 26 25 24 24 23 23 22 22 22 22 22 22 22 23 23 22 23 23 23 24 24 24
48 46 45 43 42 41 42 42 41 41 40 39 38 37 36 35 35 34 33 32 32 31 30 29 29 29 28 27 27 26 26 25 24 24 23 23 23 23 23 23 23 24 24 24 25 25 25 25 25
47 46 45 44 44 43 43 43 43 42 41 40 39 39 38 38 37 36 35 34 33 32 31 31 31 30 30 29 28 28 27 27 26 25 25 25 24 24 24 24 24 25 25 25 25 26 26 26 27
47 46 45 45 45 45 44 44 44 43 43 42 41 40 40 39 39 38 37 36 35 34 33 33 32 32 31 31 30 29 29 28 28 27 27 26 26 26 26 26 26 26 26 26 27 27 28 29 30
48 48 47 46 46 45 45 45 45 44 44 43 43 42 41 40 40 39 38 38 37 36 35 34 34 33 32 32 31 30 30 30 29 29 29 28 28 28 27 28 28 28 28 28 29 29 30 30 31
49 49 49 48 47 46 46 47 46 45 45 45 44 43 42 41 41 40 40 39 39 38 37 36 35 34 34 33 32 32 31 31 31 30 30 30 30 29 29 29 29 29 30 30 30 30 31 31 32
49 50 51 50 49 47 47 47 46 46 46 45 45 44 43 42 42 41 41 41 40 39 38 37 37 36 35 34 33 33 33 32 32 32 31 31 31 31 31 31 31 31 31 31 32 32 32 33 33
52 51 50 50 50 49 49 47 46 46 46 46 46 45 44 43 42 42 42 42 41 41 40 39 38 37 37 36 35 35 34 34 34 33 33 33 33 32 32 32 32 32 32 32 32 33 33 34 34
52 51 50 49 49 49 49 48 46 46 46 46 46 46 45 44 43 43 43 43 42 42 41 40 40 39 38 37 37 36 35 35 35 35 34 34 34 33 33 33 33 32 33 33 33 34 35 35 35
50 50 50 50 49 49 49 49 48 48 47 46 46 46 45 45 44 44 43 43 42 42 41 41 40 40 39 39 38 38 37 37 36 36 36 35 35 35 34 34 34 34 34 34 35 35 36 36 37
49 50 50 49 49 49 49 49 49 49 48 47 46 46 46 46 45 44 44 43 43 42 41 41 41 41 40 40 40 39 39 38 38 37 36 36 36 35 35 35 35 35 36 36 36 37 37 37 38
48 49 48 48 48 50 50 50 49 49 49 49 48 47 46 45 45 44 44 44 43 42 42 42 41 41 41 41 40 40 40 39 39 38 37 37 36 36 36 37 37 37 38 38 38 39 39 39 39
46 47 47 47 48 49 50 50 50 49 49 49 48 47 46 46 45 44 44 44 43 43 43 42 42 41 41 41 41 41 40 40 40 39 39 38 38 38 38 38 38 39 39 40 40 41 40 40 40
43 44 45 46 47 48 49 50 50 49 49 48 47 47 46 46 46 45 45 44 44 44 44 43 43 42 42 42 42 42 41 41 40 40 40 40 40 40 40 40 40 41 41 41 42 41 41 41 41
42 42 43 44 45 47 48 48 49 49 48 47 47 46 46 46 46 45 45 44 44 44 44 44 43 43 43 43 43 42 42 41 41 41 41 42 42 42 42 42 42 42 42 41 41 41 41 41 42
42 42 42 43 45 47 47 48 48 47 46 46 46 46 45 45 45 45 45 44 44 44 44 44 44 44 43 43 43 43 42 42 42 42 43 43 43 43 43 43 43 42 42 42 41 41 42 42 42
42 41 42 43 45 45 45 47 47 45 44 44 45 46 46 46 45 45 45 45 44 44 44 44 44 44 44 44 44 43 43 43 43 43 43 43 43 43 43 43 43 43 42 42 42 42 42 43 43
41 41 41 42 44 44 45 46 45 44 43 43 44 45 45 45 45 45 45 45 45 45 45 45 45 44 44 44 44 44 44 44 44 44 44 43 43 43 43 43 44 43 43 43 44 43 44 44 44
40 40 40 41 42 43 44 45 45 44 43 43 43 44 44 45 45 45 45 45 45 45 46 46 45 45 45 45 45 45 45 45 45 44 44 44 44 44 44 44 43 43 44 44 45 45 45 46 46
39 39 40 40 41 41 42 44 44 43 43 43 43 43 44 44 44 45 45 45 45 46 46 46 46 46 46 46 46 45 45 45 45 45 45 45 45 45 45 44 44 44 44 45 46 46 47 47 47
38 38 39 39 39 40 41 42 42 41 41 41 41 42 43 43 43 44 45 45 45 45 46 46 46 46 46 46 46 46 45 45 45 45 45 46 46 46 46 45 45 45 46 46 47 47 48 48 47
Wind_Direction
227 227 228 229 230 231 231 230 229 228 228 228 228 229 230 230 229 231 231 231 232 231 231 230 228 226 223 219 218 221 225 228 231 234 239 241 243 246 249 249 252 253 255 258 262 266 270 272 275
227 228 229 230 230 231 231 229 228 228 228 228 229 229 230 230 230 231 231 232 233 232 232 231 230 229 227 225 224 226 229 234 237 240 242 244 246 248 250 252 254 256 257 260 263 266 270 272 275
228 228 229 230 231 231 230 229 228 228 229 229 230 231 230 231 232 232 232 233 234 234 234 233 232 231 230 230 229 230 232 237 241 243 244 245 246 247 249 253 256 258 260 262 263 266 269 272 274
228 229 230 231 231 230 230 229 228 228 229 230 231 232 231 231 231 232 232 233 234 235 235 235 233 232 231 232 233 235 237 240 243 246 248 249 250 250 252 254 257 260 262 265 266 268 270 272 273
229 229 230 231 231 230 229 229 228 229 230 230 231 232 232 231 231 231 232 232 233 234 235 235 234 233 234 235 237 239 241 243 246 248 250 251 253 254 255 256 259 261 263 265 267 269 270 272 272
229 230 231 231 231 230 229 229 229 229 230 230 231 231 231 231 231 231 231 232 233 233 233 234 235 235 237 238 240 242 244 246 248 250 251 253 255 256 257 258 259 261 263 266 267 268 270 271 272
230 230 231 230 230 229 229 229 229 229 229 229 230 231 230 230 230 231 231 231 232 233 234 236 237 238 239 241 243 245 247 249 251 252 254 255 257 258 258 259 260 262 265 267 268 269 270 271 272
230 230 230 230 229 228 229 229 229 229 229 229 230 230 230 230 230 231 231 231 232 233 234 237 239 240 242 243 245 246 248 251 252 254 255 256 258 259 259 260 261 264 266 268 269 270 271 272 273
230 230 230 229 229 228 229 230 230 229 229 229 230 230 230 230 231 231 232 232 233 234 235 238 240 242 243 244 246 247 249 251 253 255 255 256 257 258 260 261 263 264 266 268 270 271 272 273 274
229 230 230 230 230 229 228 229 230 229 229 230 230 230 230 230 231 231 232 233 234 235 236 238 241 243 243 245 246 248 250 252 253 254 256 257 258 259 260 261 263 264 265 268 270 272 273 274 275
229 230 230 230 229 229 228 228 229 230 230 230 230 230 230 230 231 231 232 233 235 236 237 239 241 242 244 246 247 248 250 251 252 253 255 256 258 259 260 262 263 265 266 268 271 273 274 275 276
230 229 230 229 229 228 228 228 229 230 230 230 231 230 230 230 230 231 232 234 235 237 238 240 241 242 244 246 247 248 249 250 252 253 254 256 257 259 260 262 264 265 267 269 271 273 275 276 277
230 229 228 229 228 228 228 228 228 229 230 230 231 231 231 231 231 232 234 235 236 238 239 240 241 243 245 246 247 248 249 250 252 253 254 256 258 259 260 262 265 266 268 270 272 274 276 277 279
230 229 228 229 228 228 228 228 228 229 230 230 231 231 232 231 232 233 234 235 237 238 239 241 242 243 245 246 247 248 249 251 252 254 255 257 258 260 261 263 265 267 270 272 274 276 278 279 279
229 229 229 229 229 228 228 228 228 228 230 230 231 231 232 232 232 234 235 236 237 238 239 240 242 243 245 246 247 248 250 251 252 254 256 258 260 261 263 264 266 269 271 273 275 277 278 279 279
229 230 229 229 229 229 229 229 228 229 230 230 231 232 232 233 233 234 235 237 238 239 240 240 241 243 244 245 247 248 249 251 252 254 256 258 261 262 264 265 268 270 272 273 275 277 278 278 280
229 230 230 230 230 230 230 230 229 229 230 230 231 231 232 233 234 235 236 237 238 239 240 241 242 243 244 245 247 248 249 251 252 254 256 258 260 262 264 266 268 270 272 274 275 277 278 279 279
230 231 232 231 231 231 231 230 229 230 230 231 231 232 232 233 234 235 236 237 238 239 240 241 243 244 245 245 247 248 249 250 253 255 257 259 261 262 264 265 268 271 272 274 276 278 279 279 280
231 232 232 232 232 232 232 231 230 230 231 231 232 232 233 233 234 235 236 237 238 239 240 241 243 244 244 245 247 248 249 250 252 255 257 259 261 262 263 265 268 271 272 274 276 278 279 279 280
230 231 231 232 231 232 232 231 231 230 231 232 232 233 233 234 234 235 235 237 238 239 240 240 242 243 244 246 247 248 249 250 252 255 257 259 261 262 263 265 269 271 272 274 276 278 279 279 280
228 229 229 230 231 232 232 232 231 231 231 232 232 232 233 234 235 236 236 237 238 239 240 241 242 243 244 246 247 248 250 251 253 255 257 259 260 262 264 266 269 271 273 275 276 278 279 279 280
227 228 228 230 231 231 232 233 232 232 232 232 232 232 233 234 235 236 237 237 238 239 240 241 242 243 244 246 247 248 250 252 254 255 257 259 261 263 266 268 269 271 273 275 276 278 278 279 280
227 227 228 229 232 233 232 234 233 233 233 232 232 233 234 234 235 236 237 237 238 238 239 241 242 243 244 245 247 249 250 252 254 256 258 260 262 264 267 269 270 272 274 276 277 277 278 279 280
226 227 228 230 232 233 233 235 234 233 233 232 233 233 233 234 235 236 236 237 238 239 239 240 241 242 244 245 247 249 251 253 255 257 259 261 263 265 267 269 271 272 274 275 276 277 278 279 280
225 226 227 230 231 234 233 235 235 234 233 233 233 234 234 234 235 235 236 237 238 239 240 240 241 242 243 245 247 249 251 253 255 257 259 262 264 265 267 269 271 272 273 274 275 276 278 279 280
224 226 228 230 233 235 235 235 234 234 233 233 233 234 235 235 235 236 237 237 238 239 239 240 242 243 244 245 247 249 251 253 255 258 260 262 264 266 267 269 270 272 272 273 275 276 278 279 280
224 225 229 232 234 237 237 236 235 234 234 233 234 234 235 235 235 236 237 237 238 239 240 241 242 243 245 246 248 249 251 253 255 258 260 262 263 265 267 269 271 271 272 273 275 276 278 280 281
225 227 229 231 233 237 238 237 235 234 235 234 234 235 235 236 236 236 236 237 238 239 241 241 242 243 245 247 249 250 252 254 255 258 260 262 264 266 268 269 270 271 273 274 275 277 279 280 282
225 226 228 231 234 237 239 239 237 237 236 236 235 236 236 237 237 237 237 237 238 240 241 242 242 244 245 247 249 251 253 255 256 257 259 262 264 266 268 269 270 271 273 274 276 278 279 280 282
228 230 231 231 234 237 240 241 239 239 238 238 237 237 237 237 238 238 238 238 239 240 241 242 243 244 246 247 249 251 253 255 257 258 260 262 265 267 268 269 270 272 273 275 276 278 280 281 282
Height
5821 5824 5827 5830 5833 5835 5839 5843 5846 5849 5851 5853 5855 5857 5860 5862 5865 5868 5868 5868 5869 5870 5871 5872 5874 5875 5876 5876 5877 5878 5879 5880 5881 5881 5881 5882 5882 5882 5882 5882 5883 5883 5883 5883 5882 5882 5882 5882 5882
5815 5819 5822 5825 5827 5830 5835 5839 5842 5845 5847 5849 5851 5853 5855 5858 5860 5862 5863 5865 5866 5868 5869 5870 5872 5873 5874 5875 5876 5876 5877 5878 5879 5880 5880 5880 5880 5881 5881 5881 5881 5881 5881 5881 5881 5881 5880 5880 5880
5809 5812 5816 5819 5822 5827 5831 5835 5838 5840 5842 5845 5847 5849 5851 5854 5857 5858 5860 5862 5863 5865 5866 5868 5869 5870 5871 5872 5874 5874 5875 5876 5877 5877 5878 5878 5878 5879 5879 5879 5879 5879 5879 5879 5879 5879 5878 5878 5878
5803 5806 5809 5813 5817 5822 5826 5830 5832 5835 5838 5840 5843 5845 5848 5851 5853 5855 5857 5858 5860 5862 5863 5865 5866 5868 5869 5870 5871 5872 5873 5874 5874 5875 5875 5876 5876 5876 5877 5877 5877 5877 5877 5877 5876 5876 5876 5876 5875
5795 5798 5802 5807 5812 5817 5820 5824 5827 5830 5833 5835 5838 5841 5844 5846 5848 5850 5853 5855 5856 5858 5860 5861 5863 5865 5866 5867 5868 5869 5870 5871 5872 5872 5873 5873 5873 5874 5874 5874 5874 5874 5874 5874 5874 5874 5873 5873 5873
5788 5792 5797 5801 5807 5811 5815 5818 5821 5824 5827 5830 5833 5836 5839 5842 5844 5846 5848 5850 5853 5855 5856 5858 5859 5861 5862 5864 5865 5866 5867 5868 5869 5869 5870 5870 5870 5871 5871 5871 5871 5871 5871 5871 5871 5871 5870 5870 5870
5781 5785 5789 5795 5800 5804 5808 5811 5815 5818 5822 5825 5827 5831 5834 5837 5839 5842 5844 5846 5848 5851 5852 5854 5856 5857 5859 5860 5862 5863 5864 5864 5865 5866 5866 5867 5867 5867 5868 5868 5868 5868 5868 5868 5867 5867 5867 5867 5866
5773 5778 5782 5787 5793 5798 5802 5804 5808 5812 5815 5819 5822 5825 5829 5832 5834 5837 5839 5842 5844 5846 5848 5850 5852 5854 5855 5856 5858 5859 5860 5861 5862 5862 5863 5863 5863 5864 5864 5864 5864 5864 5864 5864 5864 5863 5863 5863 5862
5764 5770 5774 5781 5786 5791 5794 5797 5801 5805 5809 5812 5816 5820 5823 5826 5829 5832 5834 5837 5840 5842 5844 5846 5848 5849 5851 5852 5854 5855 5856 5857 5858 5858 5859 5859 5859 5860 5860 5860 5860 5861 5860 5860 5860 5860 5859 5859 5858
5755 5761 5768 5774 5778 5783 5786 5790 5794 5798 5802 5806 5810 5813 5816 5820 5823 5826 5829 5832 5834 5837 5839 5841 5843 5845 5846 5848 5849 5851 5852 5853 5853 5854 5854 5855 5855 5856 5856 5856 5856 5856 5856 5856 5856 5856 5855 5854 5854
5747 5754 5760 5765 5769 5774 5778 5782 5786 5790 5795 5799 5803 5807 5810 5813 5817 5820 5823 5826 5829 5831 5834 5836 5838 5840 5841 5843 5844 5846 5847 5848 5849 5849 5850 5851 5851 5851 5852 5852 5852 5852 5852 5852 5852 5851 5851 5850 5849
5740 5746 5751 5756 5760 5765 5770 5774 5778 5782 5788 5792 5796 5799 5803 5807 5810 5813 5817 5820 5823 5825 5828 5830 5832 5834 5836 5838 5839 5841 5842 5843 5844 5845 5845 5846 5847 5847 5847 5848 5848 5848 5848 5847 5847 5847 5846 5845 5844
5730 5736 5741 5746 5751 5756 5761 5765 5770 5774 5779 5783 5788 5792 5796 5800 5803 5806 5810 5813 5816 5819 5822 5824 5826 5828 5830 5832 5833 5835 5836 5838 5839 5839 5840 5841 5842 5842 5842 5843 5843 5843 5843 5842 5842 5841 5841 5840 5839
5721 5726 5731 5736 5741 5746 5752 5757 5762 5767 5771 5775 5780 5784 5788 5793 5796 5800 5803 5806 5809 5812 5815 5818 5820 5822 5824 5826 5828 5829 5831 5832 5833 5834 5835 5835 5836 5837 5837 5838 5838 5837 5837 5837 5837 5836 5835 5834 5833
5710 5716 5721 5726 5732 5738 5743 5748 5754 5759 5763 5767 5772 5776 5781 5785 5789 5793 5796 5799 5802 5805 5808 5811 5813 5816 5818 5820 5822 5823 5825 5826 5827 5828 5829 5830 5830 5831 5832 5832 5832 5832 5831 5831 5830 5829 5829 5827 5826
5699 5705 5711 5719 5724 5729 5735 5741 5746 5749 5754 5759 5764 5768 5773 5777 5781 5785 5788 5791 5795 5798 5801 5803 5806 5809 5811 5813 5815 5817 5818 5820 5821 5822 5823 5824 5824 5825 5825 5826 5826 5825 5825 5825 5824 5823 5822 5821 5819
5688 5696 5703 5710 5715 5720 5726 5732 5737 5741 5745 5750 5755 5760 5764 5769 5773 5776 5780 5783 5787 5790 5793 5796 5799 5801 5804 5806 5808 5810 5812 5813 5814 5816 5817 5817 5818 5819 5819 5819 5819 5819 5818 5818 5817 5816 5815 5813 5812
5682 5689 5695 5700 5706 5711 5716 5722 5727 5732 5736 5741 5746 5751 5756 5760 5764 5768 5772 5775 5778 5782 5785 5788 5791 5794 5796 5799 5801 5803 5805 5806 5808 5809 5810 5811 5811 5812 5812 5812 5812 5812 5811 5811 5810 5809 5807 5806 5804
5672 5678 5684 5690 5695 5701 5706 5712 5717 5722 5727 5732 5737 5742 5747 5751 5755 5759 5763 5767 5770 5773 5777 5780 5783 5785 5788 5791 5793 5795 5797 5799 5800 5801 5802 5804 5804 5805 5805 5805 5805 5805 5804 5803 5802 5801 5800 5798 5796
5660 5666 5672 5679 5684 5690 5695 5701 5706 5712 5717 5723 5727 5732 5737 5742 5746 5750 5754 5758 5761 5765 5768 5771 5774 5777 5780 5783 5785 5787 5789 5791 5792 5794 5795 5796 5796 5797 5797 5798 5797 5797 5796 5795 5794 5793 5792 5790 5788
5650 5656 5663 5669 5674 5679 5685 5690 5696 5702 5707 5713 5718 5723 5728 5732 5737 5741 5745 5749 5753 5757 5760 5763 5766 5769 5772 5774 5777 5779 5781 5783 5785 5786 5787 5788 5788 5789 5789 5789 5789 5789 5788 5787 5786 5785 5783 5782 5780
5641 5647 5653 5658 5663 5668 5675 5680 5686 5692 5697 5703 5708 5713 5719 5723 5728 5732 5736 5740 5744 5747 5751 5754 5757 5760 5763 5766 5768 5771 5773 5775 5777 5778 5779 5780 5780 5781 5781 5781 5781 5780 5780 5779 5777 5776 5774 5773 5771
5632 5638 5643 5648 5653 5658 5664 5669 5677 5682 5687 5693 5699 5704 5709 5714 5718 5723 5727 5731 5734 5738 5741 5745 5748 5751 5754 5757 5760 5762 5764 5766 5768 5769 5770 5771 5772 5772 5772 5772 5772 5771 5770 5769 5768 5767 5765 5764 5762
5623 5629 5634 5638 5642 5648 5655 5660 5666 5672 5679 5685 5689 5694 5699 5704 5709 5713 5717 5721 5725 5729 5732 5736 5739 5742 5745 5748 5751 5753 5755 5757 5759 5760 5761 5762 5763 5763 5763 5763 5762 5762 5761 5760 5758 5757 5756 5754 5752
5614 5620 5625 5628 5632 5638 5645 5649 5656 5663 5669 5674 5680 5684 5689 5694 5699 5703 5707 5711 5715 5719 5723 5726 5730 5733 5736 5738 5741 5744 5746 5748 5750 5751 5752 5753 5753 5754 5754 5753 5753 5752 5751 5750 5749 5747 5746 5744 5742
5606 5612 5618 5622 5626 5631 5636 5640 5648 5654 5659 5664 5669 5674 5679 5683 5688 5693 5697 5701 5706 5709 5713 5717 5720 5723 5726 5729 5731 5734 5736 5738 5740 5741 5742 5743 5743 5744 5744 5743 5743 5742 5741 5740 5739 5738 5736 5734 5732
5598 5603 5609 5614 5617 5622 5626 5632 5638 5644 5649 5654 5659 5664 5668 5673 5678 5682 5687 5691 5695 5699 5703 5707 5710 5713 5716 5719 5721 5723 5726 5728 5730 5731 5732 5733 5733 5734 5733 5733 5732 5732 5731 5730 5729 5727 5725 5723 5721
5591 5596 5601 5605 5608 5613 5618 5623 5629 5635 5640 5645 5649 5654 5658 5663 5668 5672 5676 5681 5685 5689 5693 5696 5700 5703 5706 5709 5711 5713 5716 5717 5719 5720 5721 5722 5723 5723 5723 5722 5722 5721 5720 5719 5718 5717 5715 5713 5711
5583 5588 5592 5596 5600 5606 5610 5617 5621 5626 5630 5635 5639 5644 5648 5653 5657 5662 5666 5671 5675 5679 5682 5686 5690 5693 5696 5698 5701 5703 5705 5707 5708 5710 5711 5711 5712 5712 5712 5712 5711 5710 5710 5708 5707 5706 5704 5702 5699
5575 5580 5585 5590 5593 5597 5602 5609 5612 5617 5621 5625 5629 5634 5638 5643 5647 5651 5656 5660 5664 5668 5672 5676 5679 5682 5685 5688 5690 5693 5695 5696 5698 5699 5700 5701 5701 5701 5701 5701 5700 5699 5698 5697 5696 5694 5692 5690 5688